Regional Weather Roundup
Issued by NWS Charleston, WV

Home | Current Version | Previous Version | Graphics & Text | Print | Product List | Glossary On
Versions: 1 2 3 4 5 6 7 8 9 10 11 12 13 14 15 16 17 18 19 20 21 22 23 24 25 26 27 28 29 30 31 32 33 34 35 36 37 38 39 40 41 42 43 44 45 46 47 48 49 50
313
ASUS41 KRLX 242210
RWRRLX
West Virginia Regional Weather Roundup
National Weather Service Charleston WV
600 PM EDT MON JUL 24 2017

Note: "fair" indicates few or no clouds below 12,000 feet with no
significant weather and/or obstructions to visibility.

WVZ003-242300-
Northern Panhandle of West Virginia

CITY           SKY/WX    TMP DP  RH WIND       PRES   REMARKS
WHEELING       MOSUNNY   76  63  64 NW14      29.93R
$$

WVZ009-242300-
Northwest West Virginia

CITY           SKY/WX    TMP DP  RH WIND       PRES   REMARKS
PARKERSBURG    SUNNY     82  66  58 NW10G18   29.95R
$$

WVZ006-242300-
Western West Virginia

CITY           SKY/WX    TMP DP  RH WIND       PRES   REMARKS
HUNTINGTON     CLOUDY    84  65  52 NW5       29.93R
$$

WVZ015-242300-
West Central West Virginia

CITY           SKY/WX    TMP DP  RH WIND       PRES   REMARKS
CHARLESTON     CLOUDY    83  64  52 NW13      29.93R
$$

WVZ022-031-242300-
North Central West Virginia

CITY           SKY/WX    TMP DP  RH WIND       PRES   REMARKS
CLARKSBURG     MOSUNNY   81  67  62 NW9       29.91R
MORGANTOWN     PTSUNNY   77  69  76 CALM      29.91S
$$

WVZ025-035-042-045-242300-
Southern West Virginia

CITY           SKY/WX    TMP DP  RH WIND       PRES   REMARKS
BECKLEY        CLOUDY    70  66  87 S5        30.03F
LOGAN          PTSUNNY   79  70  73 CALM      29.98S
BLUEFIELD      MOSUNNY   78  61  55 W10       30.05S
LEWISBURG      LGT RAIN  78  65  65 W6        30.00R
$$

WVZ047-242300-
Northern Mountains of West Virginia

CITY           SKY/WX    TMP DP  RH WIND       PRES   REMARKS
ELKINS         PTSUNNY   76  66  71 VRB6      29.97S
$$

WVZ052-242300-
Eastern Panhandle of West Virginia

CITY           SKY/WX    TMP DP  RH WIND       PRES   REMARKS
MARTINSBURG    PTSUNNY   87  63  44 W10       29.80F
PETERSBURG     CLOUDY    85  66  52 W10G16    29.89R
$$




USA.gov is the U.S. government's official web portal to all federal, state and local government web resources and services.